TimeCST,TemperatureF,Dew PointF,Humidity,Sea Level PressureIn,VisibilityMPH,Wind Direction,Wind SpeedMPH,Gust SpeedMPH,PrecipitationIn,Events,Conditions,WindDirDegrees,DateUTC
12:15 AM,23.5,14.5,69,30.46,7.0,NW,9.2,-,N/A,Snow,Light Snow,310,2013-11-23 06:15:00
12:35 AM,22.6,14.0,69,30.47,7.0,NW,10.4,17.3,N/A,Snow,Light Snow,320,2013-11-23 06:35:00
12:55 AM,21.7,8.6,57,30.48,10.0,NW,11.5,24.2,N/A,,Overcast,310,2013-11-23 06:55:00
1:15 AM,19.9,7.7,59,30.49,10.0,NW,13.8,17.3,N/A,,Scattered Clouds,320,2013-11-23 07:15:00
1:35 AM,20.3,7.7,58,30.50,10.0,NNW,12.7,17.3,N/A,,Mostly Cloudy,330,2013-11-23 07:35:00
1:55 AM,19.9,10.4,67,30.51,10.0,NNW,8.1,16.1,N/A,,Overcast,340,2013-11-23 07:55:00
2:15 AM,19.8,10.2,67,30.52,7.0,NNW,11.5,17.3,N/A,Snow,Light Snow,330,2013-11-23 08:15:00
2:35 AM,19.2,7.9,61,30.53,10.0,NNW,11.5,17.3,N/A,,Overcast,330,2013-11-23 08:35:00
2:55 AM,18.0,4.8,57,30.54,10.0,NNW,10.4,21.9,N/A,,Overcast,330,2013-11-23 08:55:00
3:15 AM,16.2,3.6,58,30.55,10.0,NNW,11.5,17.3,N/A,,Overcast,330,2013-11-23 09:15:00
3:35 AM,15.4,3.7,60,30.56,10.0,NW,11.5,16.1,N/A,,Overcast,310,2013-11-23 09:35:00
3:55 AM,14.9,5.0,65,30.57,7.0,NW,12.7,23.0,N/A,Snow,Light Snow,310,2013-11-23 09:55:00
4:15 AM,14.0,2.7,61,30.58,10.0,NNW,12.7,19.6,N/A,,Mostly Cloudy,340,2013-11-23 10:15:00
4:35 AM,13.1,-0.2,55,30.59,10.0,NW,6.9,-,N/A,,Scattered Clouds,320,2013-11-23 10:35:00
4:55 AM,12.6,1.9,63,30.61,10.0,NW,11.5,21.9,N/A,,Clear,310,2013-11-23 10:55:00
5:15 AM,11.8,1.0,62,30.61,10.0,NW,8.1,16.1,N/A,,Clear,310,2013-11-23 11:15:00
5:35 AM,11.1,1.2,64,30.62,10.0,NW,6.9,-,N/A,,Clear,310,2013-11-23 11:35:00
5:55 AM,10.8,1.4,66,30.62,10.0,NW,6.9,-,N/A,,Clear,310,2013-11-23 11:55:00
6:15 AM,10.4,1.6,68,30.63,10.0,NW,6.9,-,N/A,,Clear,320,2013-11-23 12:15:00
6:35 AM,10.2,1.8,69,30.63,10.0,NNW,6.9,-,N/A,,Clear,330,2013-11-23 12:35:00
6:55 AM,10.0,1.9,70,30.64,10.0,NW,8.1,-,N/A,,Clear,320,2013-11-23 12:55:00
7:15 AM,9.9,1.9,70,30.66,10.0,NW,5.8,-,N/A,,Clear,320,2013-11-23 13:15:00
7:35 AM,10.0,2.1,70,30.67,10.0,NW,6.9,-,N/A,,Clear,320,2013-11-23 13:35:00
7:55 AM,10.8,2.1,68,30.68,10.0,NW,8.1,-,N/A,,Clear,320,2013-11-23 13:55:00
8:15 AM,11.3,1.9,66,30.70,10.0,NW,9.2,-,N/A,,Clear,320,2013-11-23 14:15:00
8:35 AM,12.2,1.8,63,30.70,10.0,NW,11.5,16.1,N/A,,Clear,320,2013-11-23 14:35:00
8:55 AM,13.1,1.6,60,30.71,10.0,NW,11.5,17.3,N/A,,Clear,320,2013-11-23 14:55:00
9:15 AM,13.8,1.2,57,30.72,10.0,NNW,11.5,19.6,N/A,,Scattered Clouds,330,2013-11-23 15:15:00
9:35 AM,14.5,1.2,56,30.73,10.0,NW,8.1,18.4,N/A,,Scattered Clouds,320,2013-11-23 15:35:00
9:55 AM,14.7,1.2,55,30.73,10.0,WNW,9.2,16.1,N/A,,Scattered Clouds,300,2013-11-23 15:55:00
10:15 AM,15.1,1.6,55,30.73,10.0,WNW,10.4,-,N/A,,Scattered Clouds,300,2013-11-23 16:15:00
10:35 AM,15.4,2.3,56,30.73,10.0,NW,10.4,16.1,N/A,,Scattered Clouds,320,2013-11-23 16:35:00
11:15 AM,16.2,2.1,54,30.72,10.0,NNW,10.4,17.3,N/A,,Mostly Cloudy,340,2013-11-23 17:15:00
11:35 AM,16.0,1.4,53,30.73,10.0,NW,12.7,-,N/A,,Mostly Cloudy,320,2013-11-23 17:35:00
11:55 AM,17.4,2.5,52,30.72,10.0,NNW,11.5,17.3,N/A,,Overcast,340,2013-11-23 17:55:00
12:15 PM,16.9,1.8,52,30.72,10.0,NW,13.8,18.4,N/A,,Mostly Cloudy,310,2013-11-23 18:15:00
12:35 PM,17.4,1.2,49,30.72,10.0,NNW,8.1,-,N/A,,Mostly Cloudy,330,2013-11-23 18:35:00
12:55 PM,18.5,0.9,46,30.72,10.0,NNW,9.2,16.1,N/A,,Scattered Clouds,330,2013-11-23 18:55:00
1:15 PM,18.1,1.2,48,30.71,10.0,WNW,8.1,-,N/A,,Mostly Cloudy,290,2013-11-23 19:15:00
1:35 PM,18.7,1.8,48,30.71,10.0,WNW,10.4,16.1,N/A,,Mostly Cloudy,300,2013-11-23 19:35:00
1:55 PM,18.5,0.3,45,30.71,10.0,NW,11.5,16.1,N/A,,Scattered Clouds,320,2013-11-23 19:55:00
2:15 PM,18.1,0.7,47,30.71,10.0,WNW,11.5,18.4,N/A,,Scattered Clouds,300,2013-11-23 20:15:00
2:35 PM,18.0,-0.2,45,30.71,10.0,NW,9.2,-,N/A,,Scattered Clouds,310,2013-11-23 20:35:00
2:55 PM,17.8,-0.9,44,30.71,10.0,NW,8.1,-,N/A,,Clear,320,2013-11-23 20:55:00
3:15 PM,18.0,-1.3,43,30.71,10.0,NW,6.9,-,N/A,,Clear,320,2013-11-23 21:15:00
3:35 PM,17.6,-1.3,44,30.72,10.0,WNW,5.8,-,N/A,,Clear,300,2013-11-23 21:35:00
3:55 PM,17.1,-0.2,47,30.72,10.0,WNW,9.2,-,N/A,,Clear,300,2013-11-23 21:55:00
4:15 PM,16.2,0.3,50,30.72,10.0,WNW,8.1,-,N/A,,Clear,300,2013-11-23 22:15:00
4:35 PM,14.9,0.5,53,30.72,10.0,WNW,8.1,-,N/A,,Clear,290,2013-11-23 22:35:00
4:55 PM,14.7,0.1,53,30.72,10.0,WNW,9.2,-,N/A,,Clear,290,2013-11-23 22:55:00
5:15 PM,14.0,0.1,54,30.72,10.0,WNW,4.6,-,N/A,,Clear,300,2013-11-23 23:15:00
5:35 PM,13.1,-0.4,55,30.72,10.0,WNW,3.5,-,N/A,,Clear,290,2013-11-23 23:35:00
5:55 PM,11.1,0.5,62,30.72,10.0,WNW,3.5,-,N/A,,Clear,290,2013-11-23 23:55:00
6:15 PM,8.8,0.1,68,30.71,10.0,Calm,Calm,-,N/A,,Clear,0,2013-11-24 00:15:00
6:35 PM,4.3,-0.4,81,30.71,10.0,Calm,Calm,-,N/A,,Clear,0,2013-11-24 00:35:00
6:55 PM,2.8,-1.1,84,30.71,10.0,Calm,Calm,-,N/A,,Clear,0,2013-11-24 00:55:00
7:15 PM,2.1,-1.7,84,30.71,10.0,Calm,Calm,-,N/A,,Clear,0,2013-11-24 01:15:00
7:35 PM,0.7,-2.9,85,30.72,10.0,Calm,Calm,-,N/A,,Clear,0,2013-11-24 01:35:00
7:55 PM,-0.4,-4.2,84,30.72,10.0,Calm,Calm,-,N/A,,Clear,0,2013-11-24 01:55:00
8:15 PM,-0.0,-4.0,83,30.72,10.0,Calm,Calm,-,N/A,,Clear,0,2013-11-24 02:15:00
8:35 PM,-0.8,-4.4,85,30.72,10.0,Calm,Calm,-,N/A,,Clear,0,2013-11-24 02:35:00
8:55 PM,-1.5,-5.3,84,30.71,10.0,Calm,Calm,-,N/A,,Clear,0,2013-11-24 02:55:00
9:15 PM,-1.3,-5.1,84,30.71,10.0,Calm,Calm,-,N/A,,Clear,0,2013-11-24 03:15:00
9:35 PM,-1.5,-5.3,84,30.71,10.0,Calm,Calm,-,N/A,,Clear,0,2013-11-24 03:35:00
9:55 PM,-1.3,-5.3,83,30.71,10.0,Calm,Calm,-,N/A,,Clear,0,2013-11-24 03:55:00
10:15 PM,-2.4,-6.7,82,30.71,10.0,Calm,Calm,-,N/A,,Clear,0,2013-11-24 04:15:00
10:35 PM,-1.5,-5.3,84,30.71,10.0,Calm,Calm,-,N/A,,Clear,0,2013-11-24 04:35:00
10:55 PM,-2.7,-6.9,82,30.70,10.0,SSE,3.5,-,N/A,,Clear,160,2013-11-24 04:55:00
11:15 PM,-2.7,-6.7,83,30.70,10.0,South,3.5,-,N/A,,Clear,170,2013-11-24 05:15:00
11:35 PM,-2.6,-6.9,82,30.70,10.0,Calm,Calm,-,N/A,,Clear,0,2013-11-24 05:35:00
11:55 PM,-2.6,-7.1,81,30.70,10.0,Calm,Calm,-,N/A,,Clear,0,2013-11-24 05:55:00